Flag for Taiwan Weather past 2 weeks in Taichung, Taiwan

Now
88 °F

Passing clouds.


Feels Like: 96 °F
Forecast: 80 / 91 °F
Wind: 10 mph from Southwest

Location: Chiang Kai Shek

Current Time: Jul 31, 2015 at 9:47:22 AM

Latest Report: Jul 31, 2015 at 9:00 AM


Visibility: N/A

Pressure: 29.89 "Hg

Humidity: 62%

Dew point: 73 °F

Location of TaichungLocation

Historic Weather in Taichung — Graph

°F

Taichung temperature yesterday

Maximum temperature yesterday: 102 °F (at 3:53 PM)
Minimum temperature yesterday: 79 °F (at 2:30 AM)
Average temperature yesterday: 84 °F

Past Weeks' High & Low Weather Summary

 TemperatureHumidityPressure
High102 °F (Jul 30, 3:53 PM)100% (Jul 20, 1:00 AM)29.92 "Hg (Jul 20, 1:00 AM)
Low75 °F (Jul 28, 6:00 PM)34% (Jul 24, 10:30 AM)29.50 "Hg (Jul 16, 3:00 PM)
Average85 °F71%29.77 "Hg
* Reported Jul 16 8:00 AM — Jul 31 8:30 AM, Taichung, Weather by CustomWeather, © 2015

Note: Actual official high and low records may vary slightly from our data, if they occured in-between our weather recording intervals... More about our weather records

Advertising

Taichung weather history for previous 24 hours

 ConditionsComfort  
Time TempWeatherWind HumidityBarometerVisibility
8:30 AM
Fri, Jul 31
86 °FScattered clouds.9 mph70%29.89 "HgN/A
8:00 AM84 °FScattered clouds.7 mph74%29.92 "HgN/A
7:30 AM82 °FScattered clouds.6 mph79%29.89 "HgN/A
7:00 AM82 °FScattered clouds.3 mph79%29.89 "HgN/A
6:30 AM79 °FScattered clouds.3 mph84%29.89 "HgN/A
6:00 AM77 °FScattered clouds.5 mph89%29.89 "HgN/A
5:30 AM77 °FScattered clouds.5 mph83%29.89 "HgN/A
5:00 AM77 °FPassing clouds.3 mph83%29.89 "HgN/A
4:30 AM77 °FPassing clouds.5 mph83%29.89 "HgN/A
4:00 AM77 °FPassing clouds.6 mph83%29.89 "HgN/A
3:30 AM75 °FPassing clouds.6 mph89%29.89 "HgN/A
3:00 AM77 °FPassing clouds.6 mph89%29.89 "HgN/A
2:30 AM77 °FPassing clouds.5 mph89%29.89 "HgN/A
2:00 AM77 °FPassing clouds.3 mph89%29.86 "HgN/A
1:30 AM79 °FPassing clouds.5 mph84%29.86 "HgN/A
1:00 AM79 °FPassing clouds.3 mph84%29.86 "HgN/A
12:30 AM79 °FPassing clouds.3 mph84%29.89 "HgN/A
12:00 AM79 °FPassing clouds.3 mph84%29.89 "HgN/A
11:30 PM
Thu, Jul 30
81 °FPassing clouds.3 mph79%29.89 "HgN/A
11:00 PM81 °FPassing clouds.3 mph79%29.89 "HgN/A
10:30 PM79 °FPassing clouds.3 mph84%29.89 "HgN/A
10:00 PM81 °FPassing clouds.3 mph79%29.89 "HgN/A
9:30 PM81 °FPassing clouds.5 mph79%29.89 "HgN/A
9:00 PM81 °FPassing clouds.6 mph79%29.89 "HgN/A
8:30 PM81 °FPassing clouds.5 mph79%29.89 "HgN/A
8:00 PM81 °FPassing clouds.3 mph79%29.86 "HgN/A
7:30 PM82 °FPassing clouds.3 mph79%29.86 "HgN/A
7:00 PM82 °FPassing clouds.5 mph74%29.86 "HgN/A
6:30 PM84 °FPartly sunny.5 mph70%29.86 "HgN/A
6:00 PM86 °FPartly sunny.6 mph70%29.86 "HgN/A
5:30 PM86 °FBroken clouds.6 mph66%29.86 "HgN/A
5:00 PM84 °FBroken clouds.7 mph66%29.86 "HgN/A
4:30 PM82 °FBroken clouds.8 mph74%29.86 "HgN/A
4:00 PM82 °FPartly sunny.7 mph74%29.86 "HgN/A
3:53 PM102 °FScattered showers. Partly sunny.7 mph40%29.86 "HgN/A
3:30 PM86 °FThundershowers. Broken clouds.9 mph66%29.86 "HgN/A
3:00 PM86 °FBroken clouds.12 mph66%29.86 "HgN/A
2:30 PM90 °FScattered clouds.15 mph59%29.86 "HgN/A
2:00 PM90 °FScattered clouds.16 mph59%29.86 "HgN/A
1:30 PM90 °FScattered clouds.16 mph63%29.86 "HgN/A
1:00 PM90 °FScattered clouds.17 mph63%29.89 "HgN/A
12:30 PM90 °FScattered clouds.17 mph63%29.89 "HgN/A
11:30 AM91 °FScattered clouds.10 mph56%29.89 "HgN/A
11:00 AM91 °FScattered clouds.13 mph56%29.89 "HgN/A
10:30 AM90 °FScattered clouds.12 mph63%29.89 "HgN/A
10:00 AM90 °FScattered clouds.13 mph59%29.89 "HgN/A
9:30 AM90 °FScattered clouds.9 mph59%29.92 "HgN/A
9:00 AM88 °FScattered clouds.10 mph62%29.92 "HgN/A
Weather by CustomWeather, © 2015

See weather overviewHow to use our weather pages